Location: Newark
(40.4667°N, 5.6000°W)
Time: 12:37:41
(UTC+00:00)

A-11 Canister half - Pass Details

Date: 23 November 2019
Orbit: 1526 x 1683 km, 47.3° (Epoch: 10 December)

Event Time Altitude Azimuth Distance (km) Brightness Sun altitude
Rises 17:21:00 0° 298° (WNW) 4,832 12.2 -4.5°
Reaches altitude 10° 17:24:12 10° 296° (WNW) 3,823 11.7 -5.1°
Maximum altitude 17:33:39 61° 219° (SW) 1,747 9.7 -6.7°
Drops below altitude 10° 17:42:47 10° 142° (SE) 3,704 10.8 -8.4°
Sets 17:45:50 0° 139° (SE) 4,674 11.3 -8.9°
